Location: Go�ngahuizen
(53.0821°N, 5.8849°E)
Time: 04:09:45
(UTC+00:00)

STARLINK-1239 - Pass Details

Date: 09 April 2020
Orbit: 549 x 551 km, 53.0° (Epoch: 01 June)

Event Time Altitude Azimuth Distance (km) Brightness Sun altitude
Rises 20:08:28 0° 286° (WNW) 2,784 8.6 -14.6°
Reaches altitude 10° 20:10:49 10° 279° (W) 1,885 7.3 -14.9°
Maximum altitude 20:14:51 41° 210° (SSW) 844 4.5 -15.4°
Enters shadow 20:16:48 25° 157° (SSE) 1,171 4.8 -15.6°
